CST,Max TemperatureF,Mean TemperatureF,Min TemperatureF,Max Dew PointF,MeanDew PointF,Min DewpointF,Max Humidity, Mean Humidity, Min Humidity, Max Sea Level PressureIn, Mean Sea Level PressureIn, Min Sea Level PressureIn, Max VisibilityMiles, Mean VisibilityMiles, Min VisibilityMiles, Max Wind SpeedMPH, Mean Wind SpeedMPH, Max Gust SpeedMPH,PrecipitationIn, CloudCover, Events, WindDirDegrees
2011-11-1,88,63,38,40,31,27,71,41,12,30.04,29.97,29.83,10,10,10,9,3,,0.00,0,,346
2011-11-2,83,64,45,39,29,22,58,33,10,30.47,30.06,29.86,10,9,4,31,11,41,0.00,0,,332
2011-11-3,57,42,28,23,18,12,62,39,18,30.54,30.41,30.23,10,10,4,10,5,16,0.00,0,,59
2011-11-4,74,52,30,22,15,8,39,27,14,30.22,30.06,29.88,10,10,10,17,4,21,0.00,0,,81
2011-11-5,84,62,40,33,23,16,41,26,10,29.88,29.78,29.68,10,10,3,28,11,36,0.00,1,,246
2011-11-6,74,57,40,34,32,27,63,40,22,30.04,29.96,29.89,10,10,10,9,5,16,0.00,0,,251
2011-11-7,80,60,40,33,28,20,63,36,12,29.95,29.86,29.76,10,10,10,13,4,20,0.00,0,,272
2011-11-8,64,53,42,26,16,9,35,22,12,30.21,30.08,29.93,10,10,4,26,13,33,0.00,0,,268
2011-11-9,55,42,30,30,24,17,68,48,29,30.51,30.41,30.28,10,10,10,9,4,,0.00,0,,324
2011-11-10,61,42,24,23,16,12,60,37,17,30.56,30.45,30.30,10,10,10,7,3,,0.00,0,,225
2011-11-11,69,48,27,19,13,7,46,29,14,30.27,30.11,29.98,10,10,10,9,4,,0.00,0,,176
2011-11-12,78,64,50,22,19,16,27,18,11,29.97,29.92,29.88,10,10,10,22,8,32,0.00,0,,233
2011-11-13,79,66,54,39,35,25,43,30,22,29.95,29.88,29.81,10,10,5,26,11,36,0.00,0,,235
2011-11-14,70,65,60,52,45,37,71,48,35,29.98,29.87,29.79,10,10,10,13,6,,0.00,3,Rain,247
2011-11-15,75,58,41,43,35,25,84,42,16,29.94,29.86,29.80,10,10,10,18,9,25,0.00,0,,267
2011-11-16,73,56,40,33,29,22,62,35,16,30.25,30.03,29.90,10,10,10,16,8,20,0.00,0,,307
2011-11-17,58,45,32,29,20,16,56,40,25,30.48,30.33,30.12,10,10,7,12,6,16,0.00,0,,79
2011-11-18,79,54,28,31,20,14,57,37,12,30.09,29.96,29.84,10,10,10,23,3,28,0.00,0,,193
2011-11-19,78,56,34,24,20,16,54,27,12,29.93,29.88,29.85,10,10,5,24,7,31,0.00,0,,217
2011-11-20,77,59,41,42,27,15,65,34,14,30.09,30.02,29.95,10,10,10,14,5,,0.00,0,,80
2011-11-21,72,60,49,52,43,34,86,60,31,30.09,29.99,29.88,10,9,3,23,4,32,0.00,2,,327
2011-11-22,71,57,43,33,28,19,64,38,16,30.24,30.16,30.09,10,10,10,20,8,25,0.00,0,,272
2011-11-23,73,52,31,28,22,16,61,35,15,30.34,30.25,30.17,10,10,10,12,3,,0.00,0,,83
2011-11-24,74,52,30,34,23,14,62,39,16,30.20,30.12,30.00,10,10,10,8,3,,0.00,0,,18
2011-11-25,66,52,39,47,35,20,74,54,36,29.99,29.91,29.84,10,10,7,21,4,32,0.01,1,Rain,252
2011-11-26,54,42,30,39,22,1,66,42,14,30.56,30.26,29.95,10,10,5,25,13,37,0.00,2,,301
2011-11-27,61,41,21,8,5,2,47,27,11,30.60,30.49,30.33,10,10,10,12,8,16,0.00,0,,255
2011-11-28,71,52,33,16,12,6,33,19,11,30.30,30.16,30.05,10,10,10,23,13,30,0.00,0,,247
2011-11-29,60,46,33,23,18,13,45,32,22,30.35,30.23,30.11,10,10,10,16,6,,0.00,0,,327
2011-11-30,67,46,24,21,17,11,63,41,15,30.30,30.15,29.92,10,10,10,9,3,,0.00,0,,59